Gefundene Sportergebnisse Reiter: Hampp, Eva Maria

hoeveler tierfutter Verkauf von Dressurpferden aus Hannoveraner Zucht ZG Koehler
Benutzerdefinierte Suche


Teilnahme von

Hampp, Eva Maria


an Turnieren
 


 www.reitturnier-news.de

Gesucht wurde in reitturnier-news.de nach:


Reiter Pferde Ort
02.09 06:11:18 Alexander Ziegler02.09 06:11:43 Epona P02.09 06:10:36 Laggenbecker Reittunier
02.09 06:11:16 Marco PELLEGRINO (ITA)02.09 06:11:31 Coxter02.09 06:09:46 Reitturnier Nußbach
02.09 06:11:04 Havekost,02.09 06:10:47 Lux L02.09 06:09:46 reitturnier petersfehn
02.09 06:10:41 Felch,02.09 06:09:46 Easy Way02.09 06:08:20 DARMSTADT -
02.09 06:10:28 Hesse, Insa02.09 06:08:20 Confiance 302.09 06:06:44 Fahrturnier Wechold
02.09 06:09:57 Schilpp, Eftaliye02.09 06:08:10 Hauplord02.09 06:05:30 Turnier Steinhagen-Brockhagen
02.09 06:09:48 Hasselbach, Michael02.09 06:06:18 Norina 2002.09 06:05:05 bl
02.09 06:09:24 Hoffmann, Jennifer02.09 06:05:51 Need02.09 06:04:40 Reitverein Beckum
02.09 06:09:21 Johanngieseker, Antonius02.09 06:05:51 Feline 6602.09 06:02:24 Ovenst
02.09 06:08:49 Bollenbach, Anne02.09 06:04:31 Saalef02.09 06:02:08 Hannover-w
02.09 06:08:29 Weitbrecht, Achim02.09 06:03:25 Ben Barney02.09 06:00:48 Reitturnier Sieversen
02.09 06:08:16 Kristina Rasmussen02.09 06:02:25 Pilot 6102.09 05:59:39 süderlügum
02.09 06:07:59 Bellof, Hermine02.09 06:02:23 Rubin 63402.09 05:58:21 reilingen 2.9.2010
02.09 06:07:59 Thielen, Laura02.09 06:01:43 Picola02.09 05:56:22 mertingenVor
02.09 06:07:44 Vogel, Kurt02.09 06:01:42 st.knudsgaars deja-vu02.09 05:56:20 Dornerm
02.09 06:06:38 Tanja Thoms02.09 06:01:42 darlin 24502.09 05:55:51 Fulda -
02.09 06:06:25 kathrin bochmann02.09 06:00:32 flemming 3002.09 05:55:47 3dinformatica.infindex.php
02.09 06:06:04 sarah vo02.09 06:00:10 Harans02.09 05:55:28 Reitturnier Köngen
02.09 06:05:43 spieker, klara02.09 06:00:08 Rosenloh02.09 05:55:04 Erftstadt Scheuren
02.09 06:05:14 Konstantinovics, Tanja02.09 06:00:07 Casimo 202.09 05:54:58 19/20
02.09 06:05:03 Bandlow, Carolina02.09 05:59:37 Baronesse 9702.09 05:54:33 höhr grenzhausen
02.09 06:04:32 Beckmann,02.09 05:59:23 Zora Rossa02.09 05:54:19 Buchenhof-Ibbenbüren
02.09 06:03:50 kakerow, merit02.09 05:58:42 Emma Brown 202.09 05:53:39 Unna Massener
02.09 06:03:36 Gorgs, Alena02.09 05:58:41 Affra02.09 05:53:35 Reitturnier in
02.09 06:03:29 Marold, Christina02.09 05:57:48 Hieronymus B02.09 05:52:47 salzmünde
02.09 06:02:16 Schw02.09 05:57:34 Lollipop 13502.09 05:52:42 Herzebrock-Rheda 2009
02.09 06:02:00 ross,oliver02.09 05:57:24 De Javue 202.09 05:52:09 bayreuth-geigenreuth
02.09 06:01:42 Willi Zegers02.09 05:57:01 Aarhus02.09 05:51:29 pfullingen 01
02.09 06:01:03 Miriam02.09 05:56:24 sambesi 1302.09 05:50:39 Kreuth 2012
02.09 06:00:44 Herbold, Franziska02.09 05:56:14 Galgenberghof s Samba Dancer02.09 05:50:34 leidhecken
02.09 06:00:08 Al Attiyah, Hamad Ali02.09 05:56:12 Caretina Luminara02.09 05:50:12 RV Kamen
02.09 06:00:08 Hamad Ali Al Attiyah02.09 05:56:08 Danthes H02.09 05:49:48 Mitwitz/Ofr
02.09 06:00:08 Mohammed Hamad Ali Al02.09 05:55:21 Casanova Rex02.09 05:49:29 Warstein-Niederbergheim
02.09 06:00:07 Hamad Ali Humaid AL02.09 05:54:31 pertenstein02.09 05:49:14 01.08.2014
02.09 05:59:25 rester,02.09 05:54:29 Stormy D or02.09 05:49:06 Groß Vielen
02.09 05:59:23 James FISHER (GBR)02.09 05:53:36 Rely on me02.09 05:48:24 Gildehaus-Bentheim
02.09 05:58:50 CESAR PEREZ DE ZABALA02.09 05:53:04 Huckleberry Finn 1502.09 05:46:33 RV Leichttrab
02.09 05:58:47 frank-peter taubert02.09 05:52:21 Nandlstadt02.09 05:46:32 RV Kollmar
02.09 05:58:19 Betsch, Julia02.09 05:52:07 Deichhofs Lamouree02.09 05:46:31 07.06.2012
02.09 05:58:17 Betge, Sibylle02.09 05:52:05 City of Amsterdam02.09 05:45:10 bargteheide
02.09 05:58:13 Michaelis, Elina02.09 05:51:56 Argento 802.09 05:45:05 Neckartailfingen
02.09 05:57:50 isabell sanselzon02.09 05:51:41 la bella 2002.09 05:44:39 Ergebnisse Maashof
02.09 05:57:19 Pawlowske, Lina-Celia02.09 05:51:32 Tim Knopf02.09 05:42:59 reitturnier eichede
02.09 05:56:59 Heese, Katja02.09 05:51:31 Positana 202.09 05:41:37 ratheim
02.09 05:56:50 Eric MUHR (FRA)02.09 05:51:31 California 5502.09 05:41:14 schweyerhof- h
02.09 05:56:33 Singer, Lena02.09 05:51:29 Willy 6702.09 05:40:32 st,jürgen frankenburg
02.09 05:56:10 Schweizer, Sylvia02.09 05:51:21 Altist 402.09 05:39:50 Meckenheim
02.09 05:56:01 Gelczinnus, Hannah02.09 05:51:19 Her Destiny02.09 05:39:35 Louisiana
02.09 05:56:00 Kolibaba, Natascha02.09 05:50:51 quelle chance02.09 05:39:34 Nidda-Kr
02.09 05:55:57 Bolzenius, Johanna02.09 05:50:06 orlana602.09 05:39:18 fussg
02.09 05:55:42 Conrad, Klaus02.09 05:49:29 sempione02.09 05:39:13 reitclub tempo
02.09 05:55:36 Straßner,Fokko02.09 05:49:12 Atax02.09 05:38:06 Abenberg-Ebersbach/Mfr
02.09 05:55:30 Francisco Lopes DUARTE (POR)02.09 05:48:28 canduci02.09 05:35:21 Sittensen- Königshof
02.09 05:55:22 jeldrik kr02.09 05:47:42 raval02.09 05:34:09 Heidelberg-
02.09 05:55:21 Kietzer, Eileen02.09 05:47:42 Bernstein 6902.09 05:34:00 Tremsdorf
02.09 05:55:05 jessica vosseler02.09 05:47:15 hanson02.09 05:33:34 Niederseeon/Obb.
02.09 05:54:43 christiane roll02.09 05:46:57 Launeb02.09 05:33:01 spenge wallenbr
02.09 05:54:40 pei02.09 05:45:20 Sitara 802.09 05:32:59 Langenscheid Zeiteinteilung
02.09 05:54:18 Jungermann02.09 05:45:19 Polly pocket02.09 05:32:53 Pocking/Ndb
02.09 05:54:13 Kreidler, Sylvia02.09 05:45:15 dusty02.09 05:31:41 Kalenborner Höhe
02.09 05:53:59 Dewert, Ann-Catherine02.09 05:45:13 Lucy 49002.09 05:30:14 Hamminkeln brünen
02.09 05:53:31 Berfelde,02.09 05:45:13 Finnegan s Wake 502.09 05:30:07 Hohentengen
02.09 05:53:05 laura rattmann02.09 05:44:59 Mac Laren B02.09 05:29:37 WARTENBERG -
02.09 05:53:03 Lena OSTROWICKI (GER)02.09 05:44:49 Ramazotti 13202.09 05:29:32 Sonnwend-Derby
02.09 05:52:25 Bandilla Philipp02.09 05:44:16 In volle Vaart02.09 05:26:41 kreismeisterschaft höxter
02.09 05:52:20 stefanie giese02.09 05:44:07 Damina02.09 05:26:21 westerwälder reitertage
02.09 05:52:15 Fritz, Charline02.09 05:43:58 farina 94402.09 05:26:19 cappel
02.09 05:51:47 Eiting heike02.09 05:41:38 Toquet02.09 05:26:04 Lippstadt
02.09 05:51:35 Sagem02.09 05:41:09 pikeur 12002.09 05:25:43 Emmerting 2012
02.09 05:51:02 Brautmeier, Michael02.09 05:40:56 Roi de reve02.09 05:25:38 beverstehter reitturnier
02.09 05:50:57 Boesen, Lena02.09 05:40:42 El Principal02.09 05:25:18 reitturnier gellmersbach
02.09 05:50:48 sarah voß02.09 05:39:37 Threesome02.09 05:24:29 soltau an
02.09 05:50:47 Ramiro02.09 05:39:34 West02.09 05:22:21 Reutte
02.09 05:50:47 Br02.09 05:38:37 Morning Moscan02.09 05:21:47 Neukirchen Vluyn
02.09 05:49:50 Brunn, Andrea02.09 05:38:19 Dustin HL02.09 05:20:07 Oerlinghausen-Währentrup
02.09 05:49:46 arietta sausmikat02.09 05:37:25 Winona 4102.09 05:20:04 Reitturnier Mahner
02.09 05:49:25 Wamboldt, Annika02.09 05:36:29 Jappeloup 3502.09 05:19:45 rosenthal
02.09 05:49:00 Menninga, Johanna02.09 05:36:12 Cartier 10002.09 05:17:32 Treiturnier Gospersgr
02.09 05:48:57 Barth-Bußmann, Christina02.09 05:36:08 Cevin 2402.09 05:16:57 Weilheim-Teck
02.09 05:48:28 behrendt katja02.09 05:35:52 Dream On 702.09 05:16:54 Berlin-Malchow
02.09 05:47:59 Stark-Sontheimer, Elvira02.09 05:35:42 Söhnlein Brilliant 202.09 05:13:58 leezdorf goldberg
02.09 05:47:44 Germann, Doreen02.09 05:35:30 Merveille02.09 05:13:38 geesteren
02.09 05:47:42 Bohlen Verena Haren02.09 05:35:26 Sbr Lazzarone02.09 05:11:38 Bochum-Nord
02.09 05:47:41 Alag02.09 05:33:45 schmuseb02.09 05:11:32 Norderstedt 16.-17.2.2013
02.09 05:47:40 D02.09 05:33:43 Charmant 3602.09 05:10:48 Celle
02.09 05:47:40 silke wiesinger-K02.09 05:33:16 Celvin 702.09 05:09:25 ancona
02.09 05:47:07 Schuhen, Anna-Lisa02.09 05:32:49 romyreen02.09 05:09:01 GREBENSTEIN
02.09 05:47:06 Monika KROEZ (GER)02.09 05:32:05 Ed King02.09 05:08:40 diepersdorf 27
02.09 05:46:55 May-Pörtner, Sandra02.09 05:31:31 royal luana02.09 05:07:44 29.07.2019
02.09 05:46:49 Elizabeth WILSON-WEBER (PUR)02.09 05:30:38 avenzio02.09 05:07:40 winschoten
02.09 05:46:36 schnippe, kira02.09 05:29:50 fabiola02.09 05:07:02 fronhofen
02.09 05:46:25 Bihler, Tina02.09 05:29:49 Rising Sun 5702.09 05:06:34 wietzen
02.09 05:46:12 Franziska Wehnert02.09 05:29:03 Wailando02.09 05:05:52 Seehof Petting
02.09 05:46:00 Engel, Anja02.09 05:28:53 Lakita 902.09 05:05:31 Pellheim Gerblhof
02.09 05:45:49 druid 402.09 05:28:48 return 1002.09 05:04:50 Oberhausen-K
02.09 05:45:44 Tanja KLUTH (GER)02.09 05:28:16 Tani02.09 05:04:33 augustin
02.09 05:45:43 san patrignano mister02.09 05:27:59 Satchmo 10502.09 05:04:28 reiturnier fridrichshulde
02.09 05:45:29 dominic ernst02.09 05:27:56 Cutter02.09 05:03:46 Reitturnier Marpiingen
02.09 05:45:27 Abdulla Mohammed HAMEED (BRN)02.09 05:27:39 Concorde 5802.09 05:03:28 reitturnier trochtelfingen
02.09 05:45:06 sophie irl02.09 05:25:28 Ulanda 1502.09 05:02:29 Unters
02.09 05:44:43 Polly HINGSTON (GBR)02.09 05:24:25 Clear Lady02.09 05:02:24 Salbitz
02.09 05:44:24 Garbatz, Lilli Pauline02.09 05:23:47 Stutenhof02.09 05:01:32 dressurturnier rehagen
02.09 05:43:41 Wember, Selyna02.09 05:22:37 High Fidelity 402.09 05:01:19 Ingolstadt-Herrenschwaige
02.09 05:43:20 silke wiesinger-König02.09 05:21:27 Magic Bene02.09 05:00:59 St.Georgen
02.09 05:43:05 Manzke, Linda02.09 05:21:20 Magic Maxwell02.09 04:57:38 rehde
02.09 05:42:38 Gutjahr, Daijana02.09 05:21:14 Classidos Cherie02.09 04:56:07 Allroder Reitertage
02.09 05:42:05 Karstensen, Jette02.09 05:20:13 Feliciti 202.09 04:55:52 NEUENSTEIN -
02.09 05:41:56 Marcelina Stobinski02.09 05:20:00 Anthony Harris02.09 04:55:49 Bargstedt
02.09 05:41:23 Semmelhaack, Christiane02.09 05:19:21 Patti la Belle02.09 04:55:37 Turnier Lobberich
02.09 05:41:14 Poetsch, Sarah02.09 05:18:51 Divina mmh02.09 04:54:53 haltern 2005
02.09 05:41:00 thomas hufnagl02.09 05:18:16 Rosenkönig 702.09 04:53:59 Schloß Holte
02.09 05:40:29 Barbeln, Jennifer02.09 05:17:55 Fantastic touch 202.09 04:52:43 niederbröl knotte
02.09 05:40:28 Minke,02.09 05:17:30 Melodie 31302.09 04:50:25 kreis borken
02.09 05:40:18 Brachwitz, Michelle02.09 05:17:28 Balou 23602.09 04:49:22 Ausleben 2011
02.09 05:40:13 Etter, Jessica02.09 05:17:26 Pepper V02.09 04:49:19 ruv
02.09 05:39:36 Fend,02.09 05:16:49 cordy 502.09 04:47:52 Bundenbacherh
02.09 05:39:34 judith viegen02.09 05:16:29 Antwerpen 302.09 04:47:13 reitturnier senne
02.09 05:39:10 Hanske, Sandra02.09 05:16:19 Vae02.09 04:46:30 tann niederbayern
02.09 05:39:08 Isabell Werth und La02.09 05:15:50 Torado02.09 04:46:14 Turnier Gundernhausen
02.09 05:38:58 IDRIS MOHAMMED NUR OMAR02.09 05:14:21 Champagner 5002.09 04:45:04 rv schamerloh
02.09 05:38:50 Baumgaertner,02.09 05:14:18 Wendu02.09 04:43:57 ausschreibung etingen
02.09 05:38:26 Götz, Julia02.09 05:12:28 Golden Avalon ASS02.09 04:41:04 Manerbio 2012
02.09 05:38:18 eiberger, michaela02.09 05:11:56 Simply Red02.09 04:41:04 behrungen
02.09 05:38:10 Henrich, Lena02.09 05:11:17 Chandra 2102.09 04:37:57 Reitturnier St
02.09 05:38:05 Hörschen, Alina02.09 05:11:04 Rimini 6102.09 04:33:55 oststeinbek-havighorst
02.09 05:37:45 Behrendt, Anke02.09 05:10:26 colibris Lady02.09 04:32:39 suhlendorf 2008
02.09 05:37:43 Annette pr02.09 05:10:26 Lourdes02.09 04:32:39 Hengstschau
02.09 05:37:04 ANTOINETTE WINDBERG02.09 05:10:19 Don Pedro 8402.09 04:30:07 vilamoura
02.09 05:37:02 Chantal Freudenreich02.09 05:09:23 Palm Spring02.09 04:29:18 starmann
02.09 05:37:01 Max Braucksiepe02.09 05:08:46 D Artagnan 1902.09 04:29:11 reitturnier wernigerode
02.09 05:36:43 Birgit Sessinghaus02.09 05:07:43 Jumanji02.09 04:27:35 rissen birkenhof
02.09 05:36:41 Riede,02.09 05:07:16 Grambambulin02.09 04:26:19 startliste blankenloch
02.09 05:36:33 Persson, Catharina02.09 05:07:05 Charleth02.09 04:25:54 reitertag waldmohr
02.09 05:36:33 Laura NEWMAN-DEMPSTER (NZL)02.09 05:06:48 Graf Darko 202.09 04:25:50 Duisburger RuFV
02.09 05:36:31 runge flora02.09 05:06:21 Dornberg02.09 04:25:39 heidenheim 2010
02.09 05:36:23 Monika Ulsamer02.09 05:06:19 Lyandra02.09 04:25:29 SIRZENICH
02.09 05:36:08 Freire, Boaventura Francisco02.09 05:05:59 Chici Mici 202.09 04:25:24 oberm
02.09 05:36:05 Schwärzler, Christiane02.09 05:04:53 Raembers Shadow02.09 04:24:59 uetersen reitertage
02.09 05:35:49 Elisabeth Seidel02.09 05:04:49 Classic Goerl02.09 04:24:36 Nast
02.09 05:35:15 Schmeddes, Michael02.09 05:03:50 Free Dancer02.09 04:24:31 Zubzow 12
02.09 05:35:01 Buckert, Carmen02.09 05:03:14 Cacharel 2002.09 04:24:12 sellstedt 2009
02.09 05:34:43 juliane frotscher02.09 05:01:56 Sammy Davis Junior.02.09 04:24:10 Reifnitz
02.09 05:34:41 Dreyer, Sabine02.09 05:01:40 Distel 5602.09 04:23:38 Uffenheimer
02.09 05:34:40 Milchers,Vera02.09 05:00:31 Rodizio02.09 04:20:40 Reitturnier Bippen
02.09 05:34:37 Schulze Elpert, Franz-Josef02.09 04:59:50 Defacto DE02.09 04:19:17 Reitturnier wiblingen
02.09 05:34:30 Essig, Marleen02.09 04:59:18 Fivita02.09 04:19:08 herfort
02.09 05:34:27 Reinisch, Carolin02.09 04:58:15 FLIC FLAC VII02.09 04:18:06 Lippstadt-Benninghausen
02.09 05:34:20 Henning DRIEDGER (GER)02.09 04:58:13 monello favoloso02.09 04:16:46 RV WIldeshausen
02.09 05:34:15 Kuhne, Madeleine02.09 04:58:02 Dornenvogel02.09 04:15:59 herzlake
02.09 05:33:44 Uredat, Felix02.09 04:57:51 lennox 12102.09 04:15:55 Suhlendorf
02.09 05:33:39 Stukenbrock, Katrina02.09 04:57:32 matahari02.09 04:15:48 reitstall morschheuser
02.09 05:33:19 Bücken, Saskia02.09 04:57:00 Bravissimo 402.09 04:15:22 buschturnier
02.09 05:33:19 horst rimkus02.09 04:57:00 cartoons02.09 04:15:10 Hanstedt
02.09 05:33:07 Radecke-Bender, Corinna02.09 04:56:49 Caracalla 1002.09 04:14:32 remscheid
02.09 05:33:00 Baumann, Yvonne Tanja02.09 04:56:31 Comtessa 11002.09 04:13:32 Bremen 2010
02.09 05:32:59 Sören Jahreiß02.09 04:56:05 Quandora02.09 04:13:30 dublin 1971
02.09 05:32:40 Lale Nadirler02.09 04:55:44 Westermoor s Merlin02.09 04:13:25 faszination pferd
02.09 05:32:24 Saldeitis, Sabine02.09 04:55:44 leise02.09 04:12:58 neu ansbach
02.09 05:32:18 Eschwey, Volker02.09 04:55:29 gervantus02.09 04:11:48 Enniger
02.09 05:31:38 Kuzmenko,Ann-Katrin02.09 04:55:19 Miss Moneypenny 2702.09 04:11:46 Reitturnier Hanerau-Hademarschen
02.09 05:31:27 hippenstiel, jochen02.09 04:53:47 Delorean Dream02.09 04:11:22 Hamburg-Wilhelmsburg-Kirchdorf
02.09 05:31:27 Steinmeies, Lara02.09 04:52:46 Chester SKB02.09 04:11:01 Bochum-Laer 2011
02.09 05:31:18 Dormeier, Anna02.09 04:52:28 Moon lee02.09 04:10:26 heppenheim
02.09 05:30:58 Bernd LANGUSCH (AUT)02.09 04:52:22 Golden Dancer 1602.09 04:10:07 dressur turnier
02.09 05:30:51 nienstedt02.09 04:52:22 Faro02.09 04:09:48 Stangerode
02.09 05:30:37 Alicia GARCIA (DOM)02.09 04:52:12 corella02.09 04:09:40 Bielfelder
02.09 05:30:37 Felbinger-Karp02.09 04:52:08 Gina 137602.09 04:09:22 2010 ravensburg
02.09 05:30:13 Bors, Ulrike02.09 04:52:03 Fr02.09 04:07:59 allenbostel 01.05.2012
02.09 05:30:04 Mohrenberger, Anja-Katharina02.09 04:51:59 Vasco02.09 04:07:01 kreisturnier riesenbeck
02.09 05:30:00 Weyers,Juergen02.09 04:51:45 Champerno02.09 04:06:37 kutsch
02.09 05:29:53 elena klein02.09 04:51:09 Linaro s Killroy02.09 04:06:30 Nesselröhden 2007
02.09 05:29:34 Krings, Karolin02.09 04:49:56 Charlie Brown 9502.09 04:05:47 Steinheim/Albuch
02.09 05:29:32 Welscher, Carolin02.09 04:49:35 Granat 30302.09 04:05:19 Bokel bei
02.09 05:28:57 Bargstädt, Stephanie02.09 04:49:35 Cajoleur 502.09 04:04:15 Breitenrode
02.09 05:28:36 Poser, Karl-Heinz02.09 04:48:25 Cumano B02.09 04:03:57 rodderhof
02.09 05:28:34 Dreikant,02.09 04:46:28 William 21402.09 04:03:24 ZRFV
02.09 05:26:36 Grüssner, Maren02.09 04:46:09 rotterdam02.09 04:03:20 Teningen-Köndringen
02.09 05:26:25 Wild, Sophie02.09 04:45:24 Wasko 3402.09 04:02:43 bormsdorfer turniertage
02.09 05:25:58 Hand, John02.09 04:44:27 Camira 5402.09 04:01:49 Herford Bexter-Hof
02.09 05:25:42 Sandra Jessen02.09 04:44:18 Sheitan02.09 04:01:31 Au in
02.09 05:25:38 Weller, Verena02.09 04:44:02 Numro02.09 04:00:36 Seifersdorf
02.09 05:25:30 Seipp, Tonia02.09 04:43:48 FBW Lonevan02.09 03:58:29 Bockhorn Steinhausen
02.09 05:25:30 Aschwege von, Franziska02.09 04:43:17 E.T. 3002.09 03:58:13 Waldbr
02.09 05:25:25 Matthias Busch02.09 04:42:58 Atlantico02.09 03:57:55 of Nordpol
02.09 05:25:18 Bitter , Birthe02.09 04:42:54 Filou 72502.09 03:56:59 bonn gut
02.09 05:25:06 Weber Dr., Peter02.09 04:42:36 Candra02.09 03:56:25 Hagen a.
02.09 05:24:55 Flach, Margit02.09 04:41:49 Samira 24002.09 03:56:07 Eckstein
02.09 05:24:38 Deutz, Saskia Alexandra02.09 04:41:48 Rivera 3502.09 03:55:48 telgte lauheide
02.09 05:24:22 Jasmin BRUNNER - R02.09 04:40:55 Dippeling02.09 03:54:51 rsv eller
02.09 05:24:22 pösch renate02.09 04:40:51 Wohlklang02.09 03:54:46 alt zetschdorf
02.09 05:24:15 Jendrycki, Lisa02.09 04:40:49 Kordes 302.09 03:54:44 august2014
02.09 05:24:13 Veltrup, Lisa02.09 04:40:27 La Granada02.09 03:53:42 LORCH-ESPENSCHIED
02.09 05:23:59 Spraul, Ann Kristin02.09 04:39:36 gustino02.09 03:53:18 Alt MadlitzRio
02.09 05:23:55 sabine löffler02.09 04:39:32 His Black Magic 202.09 03:52:05 Diessen
02.09 05:23:43 Samorin, Lilian02.09 04:39:24 polarstern l02.09 03:51:51 RFV Wedel
02.09 05:23:18 Warnke, Luna02.09 04:39:20 Come Fly with me02.09 03:51:16 Sottrum
02.09 05:23:09 Heider, Kerstin02.09 04:39:19 Ciara 2302.09 03:50:45 verona
02.09 05:23:01 gints petersons02.09 04:38:34 Jazzper02.09 03:49:34 straelen
02.09 05:22:52 Kevin Braun02.09 04:37:48 Corazon 2402.09 03:49:17 reitturnier bochum
02.09 05:22:36 Neumann, Jens02.09 04:37:37 Fabienne 48202.09 03:47:57 RV Barlo-Bocholt
02.09 05:22:23 Leyer, Lisa-Marie02.09 04:37:05 Asina 1302.09 03:46:25 reitturnier fellbach
02.09 05:21:27 Klinkhart, Jennifer02.09 04:36:43 Careful 4602.09 03:46:21 Düsseldorf-Eller Reitanl.
02.09 05:21:31 petra dambrowski02.09 04:36:14 Tropenwind02.09 03:45:40 stahnsdorf 2008
02.09 05:21:29 Rosenmeyer, Madeleine02.09 04:35:44 Con Takyi02.09 03:45:29 Helferskirchen
02.09 05:21:27 Schwarz, Anja02.09 04:35:38 scampofeo02.09 03:45:11 Warza
02.09 05:21:23 yvonne dittrich02.09 04:35:23 Little Jumper 1402.09 03:44:00 katterdorf
02.09 05:21:09 Schrecker, Kim02.09 04:35:04 mrs. marpel w02.09 03:43:44 Schlitz
02.09 05:21:08 Kopp Frau, Nicole02.09 04:34:47 Classique02.09 03:43:19 Weißbach
02.09 05:21:07 annika otto02.09 04:34:34 Laetitia H02.09 03:42:27 Milte-Sasseng
02.09 05:20:48 Rockenbach, Nicole02.09 04:34:33 Royal Romance T02.09 03:40:54 wickmann
02.09 05:20:17 Heinrich, Luisa02.09 04:34:32 niko 17002.09 03:40:21 wiesbaden adamstal
02.09 05:20:10 Schrage, Gunnar02.09 04:34:32 Goa 2002.09 03:38:21 Rv bergisch
02.09 05:20:09 Paul FARRELL (RSA)02.09 04:34:32 valentina 6402.09 03:38:14 Oberfeulen
02.09 05:19:55 jennifer bachert02.09 04:33:56 Ludwig02.09 03:37:49 heideck/mfr.2010
02.09 05:19:46 Ponnier, Celina02.09 04:33:56 mister monk 202.09 03:37:41 Seehaus
02.09 05:19:19 Sievert, Christine02.09 04:32:39 Loxley 1102.09 03:37:06 Reitturnier Helle
02.09 05:19:04 monika theuergarten02.09 04:32:23 Limburg W02.09 03:36:33 turnier vellinghausen
02.09 05:18:45 Vogeler, Elke02.09 04:32:23 Gondoliere 802.09 03:35:48 Ennigerloh-Neubeckum
02.09 05:18:44 Lehmann, Wolfgang M.Dr.02.09 04:31:42 Vino Bianco 202.09 03:35:17 ibbenb
02.09 05:18:41 Heil, Linda02.09 04:31:16 Lamourex02.09 03:33:57 Neuhof
02.09 05:18:12 katrin stutzmiller02.09 04:31:12 Good Girl 1102.09 03:32:15 Dressur Dollbergen
02.09 05:18:07 Weh, Jennifer02.09 04:31:12 Gratiana02.09 03:31:58 st augustin
02.09 05:17:26 kopp, martina02.09 04:30:12 Accor- B02.09 03:31:58 Essingen
02.09 05:17:25 Dossow, Miriam02.09 04:30:00 Hazard 1502.09 03:31:48 altshausen
02.09 05:17:12 Evelyn Welz02.09 04:29:58 Nourejev02.09 03:30:19 Hallenchampionat
02.09 05:16:59 Pedersen, Jonas Heinrich02.09 04:29:38 Sternentänzerin02.09 03:29:58 reitturnier uetersen
02.09 05:16:56 Schirren, Lea02.09 04:29:32 Fairy Bluebird02.09 03:29:43 Tiefenbach
02.09 05:16:54 Fahad Mohammed AL HAJRI02.09 04:28:20 Coral Beach02.09 03:29:30 Del Mar
02.09 05:16:50 Dresia, Tina02.09 04:28:05 Bumbelby02.09 03:29:07 Bösleben
02.09 05:16:17 Töpler, Stefanie02.09 04:27:57 Headhunter WE02.09 03:28:53 Schee
02.09 05:16:08 Monath, Katharina02.09 04:27:52 Fränklin 602.09 03:27:43 körung redefin
02.09 05:16:04 Natascha Koch02.09 04:26:26 Ronana02.09 03:27:23 thygs
02.09 05:15:50 Levermann, Christina02.09 04:26:23 woman of the world02.09 03:25:28 kerpen-niederbolheim
02.09 05:15:50 MOHAMMED ISMAIL ALI AL02.09 04:26:18 Carthilago02.09 03:25:21 Amman(JOR)
02.09 05:15:21 Wendt, Julia02.09 04:25:56 Clara de luxe02.09 03:24:37 mainz-gonsenheim
02.09 05:15:25 bockenbach,02.09 04:25:36 embassy II02.09 03:24:20 Höven
02.09 05:15:23 annika dittmar02.09 04:25:12 Higgins 5802.09 03:23:55 Wesel-Diersfordt
02.09 05:15:21 Arline WEILER (AUT)02.09 04:24:28 Cappuccino 4602.09 03:23:13 osterturnier bernkastel
02.09 05:15:10 pommerening, monika02.09 04:24:16 Sternenfee F02.09 03:22:45 Zittau
02.09 05:15:10 Henri BERNARD (FRA)02.09 04:23:56 Calano 602.09 03:22:22 in
02.09 05:14:52 Mercedes Helena Schmitz02.09 04:23:49 Larrys02.09 03:22:06 zittau 13.6
02.09 05:14:52 sarah schneider02.09 04:23:36 Silvermoon02.09 03:21:15 uslar-vahle
02.09 05:14:42 ross,02.09 04:23:26 laurieano02.09 03:20:17 Mariendorf
02.09 05:14:00 philipp ullrich02.09 04:22:52 Cayana02.09 03:19:56 Reittunier Monrepos
02.09 05:13:56 Meyerdierks, Anna Laura02.09 04:22:41 Robinson Crouso02.09 03:19:35 schwabe
02.09 05:13:15 julia huber02.09 04:22:14 JK HORSETRUCKS ALME ADELHEID02.09 03:19:27 arnsberg m
02.09 05:12:55 Jacobs, Lena02.09 04:21:19 Doreen 19402.09 03:19:18 Wehnsdorf
02.09 05:12:40 Glowalla, Anna02.09 04:20:40 Conchicco02.09 03:19:16 nienborg-heek
02.09 05:12:36 T02.09 04:19:11 Contre Attaque02.09 03:18:12 schwamtal
02.09 05:12:30 Juana ANDREOU (AUS)02.09 04:18:48 Mc Laren 702.09 03:17:23 dresur und
02.09 05:12:20 Meiers, Ulrike02.09 04:17:54 Loona 7702.09 03:17:10 13.
02.09 05:12:15 danilewski02.09 04:17:32 Carlotta 18802.09 03:16:40 Zeiteinteilung Turnier
02.09 05:12:09 Michael Börner02.09 04:17:29 Rabina 2502.09 03:15:59 pulverdingen
02.09 05:11:56 Opdenberg, Flora02.09 04:16:20 Special Edition 1602.09 03:14:49 Harthausen am
02.09 05:11:30 Petra RADNER (AUT)02.09 04:16:20 Louis 24302.09 03:14:31 eürwiß
02.09 05:11:09 E02.09 04:16:08 Graluria02.09 03:14:01 Pöhlde am
02.09 05:11:08 Pape, Laura02.09 04:15:11 gandolfini02.09 03:13:42 Delbrück
02.09 05:11:09 Nolte, Anna02.09 04:14:51 Watteau 5702.09 03:12:55 Kissing
02.09 05:10:11 Buhner02.09 04:14:00 Nippes02.09 03:12:31 luhmühlen
02.09 05:09:22 Behrendt, Hannah02.09 04:13:55 Sam the Man 502.09 03:10:35 saarbr
02.09 05:09:05 Baust, Peter02.09 04:13:43 Paganita02.09 03:08:27 TM Grabsleben
02.09 05:08:11 Penkwitt, Lilia Lu02.09 04:12:34 Limited s Highlight02.09 03:07:41 großbardorf
02.09 05:08:07 hefele oliver02.09 04:12:11 Dallas 5602.09 03:05:57 seitzehahn
02.09 05:07:59 Kaminski, Victoria02.09 04:12:01 Irmi02.09 03:04:25 USINGEN
02.09 05:07:40 Walter, Sophia Julia02.09 04:11:54 Light Flash02.09 03:03:50 sieversen 2013
02.09 05:07:33 bianca zeitler02.09 04:11:41 Chakira Sun02.09 03:02:36 Sievershütten
02.09 05:07:27 Quintero Palomar, Andres Mauricio02.09 04:11:23 Randeck02.09 03:02:21 muhlengeez
02.09 05:06:55 Oehle, Stefanie02.09 04:11:10 Quelena02.09 03:01:00 Mayen, thomashof
02.09 05:06:16 Unkauf, Lilly02.09 04:10:04 Dynamite Dookie02.09 03:00:52 rosendahl
02.09 05:06:13 wendell, ANNE-KATHRIN02.09 04:10:02 Lena Lotta02.09 03:00:50 Zeiteinteilung Bensheim
02.09 05:06:09 Hackl, Anna02.09 04:09:55 Tenopolis02.09 03:00:31 hülen
02.09 05:05:31 Nadine Diener02.09 04:09:42 tessie02.09 03:00:13 Mooswiese 2009
02.09 05:05:18 Hennings, Christine02.09 04:09:41 donata b02.09 03:00:11 Essen Oldenburg
02.09 05:05:21 güstrow02.09 04:09:30 nando j02.09 03:00:02 altent
02.09 05:05:10 Alagöz, Nesrin-Nadine02.09 04:09:20 Aladin 62902.09 02:59:49 Vorsfelde
02.09 05:04:17 Lutz Giersemehl02.09 04:09:12 Duncan Mc Leod 202.09 02:59:20 Hallenturnier Niederkr
02.09 05:04:11 Pieper, Ellen02.09 04:09:11 Grande Noblesse 202.09 02:57:59 ahrensb
02.09 05:04:07 Deuss, Vivien02.09 04:09:10 Asti 7102.09 02:57:15 Harpstedet
02.09 05:03:51 Tornack, Lucas02.09 04:08:41 Risk02.09 02:57:10 Reitverein Tarmstedt
02.09 05:03:33 Dierks, Julia02.09 04:08:40 Montyn Thyme02.09 02:52:32 bitburg
02.09 05:03:28 Riffel, Karin02.09 04:08:14 Weltinda02.09 02:52:10 villingendrf
02.09 05:03:05 Eickelkamp, Annette02.09 04:07:56 Fabiola 27902.09 02:51:57 BUTZBACH
02.09 05:03:01 Stenger, Tina02.09 04:07:20 Quaid 202.09 02:51:33 viersen süchteln
02.09 05:02:59 Szallies, Vera02.09 04:07:13 Antony 2502.09 02:49:49 süsel
02.09 05:02:49 Niehage, Pia02.09 04:07:08 Qusieben02.09 02:48:47 Gespannmeisterschaften
02.09 05:02:21 DEBORAH WALKER (USA)02.09 04:06:15 Walk of Fame 2602.09 02:48:00 Teschow
02.09 05:02:11 Veilchner, Kim-Elisa02.09 04:06:15 gipsy k02.09 02:47:47 mücke-atzenhain
02.09 05:02:09 Huber, Kira02.09 04:06:06 coletta 2402.09 02:46:22 Buckenberg
02.09 05:02:08 Salome WIESE (RSA)02.09 04:06:03 Kimbaleh02.09 02:45:20 reitturnier p
02.09 05:02:01 Getzkow, Laura02.09 04:05:45 Caesarion 202.09 02:44:19 Dettingen am
02.09 05:01:57 spindler, gilbert02.09 04:05:44 Falkenhof s Marques02.09 02:43:37 fahrturnier bliesen
02.09 05:01:55 Jana Borchers02.09 04:05:43 Montezuma00702.09 02:42:36 Holdorf
02.09 05:01:49 Angela KUNZ (SUI)02.09 04:05:29 Graf Goja02.09 02:42:15 heider
02.09 05:01:30 Suntrup, Markus02.09 04:05:20 Lucifer02.09 02:39:58 Hackendorf
02.09 05:01:22 Garcia, Paula Rodriguez02.09 04:05:18 Rico Rubet02.09 02:39:30 kalthof
02.09 05:00:38 Bruckmeier, Lisa-Marie02.09 04:05:18 Grand Bijou 502.09 02:37:49 gelsenkirchen-Scholven
02.09 05:00:33 Dieckert, Fritz Lennard02.09 04:04:47 corofino02.09 02:37:44 Springturnie Geigenreuth
02.09 05:00:21 Sabrina PREUSS (GER)02.09 04:04:24 Cobald 202.09 02:37:27 RheinbergBudberg
02.09 05:00:18 Thieme, Sandy Jane02.09 04:03:13 CAMPINA02.09 02:36:25 kirchwerder
02.09 05:00:09 Krayl, Corinna02.09 04:02:51 Schwarzer Blitz02.09 02:36:21 kindertunier in
02.09 04:59:56 Stieglbauer, Natali02.09 04:02:16 grand charme02.09 02:35:24 wan
02.09 04:59:54 meyer, jeany02.09 04:01:18 la petit02.09 02:32:56 zeiteinteilung hildesheim
02.09 04:59:40 Tock Nathalie02.09 04:00:19 Jarcalo02.09 02:28:28 sinhofen
02.09 04:59:35 Alexandra hirschbolz02.09 04:00:18 rasputin02.09 02:27:53 starterliste daun
02.09 04:59:32 seitz nicole02.09 04:00:17 Finale 17202.09 02:27:24 sp
02.09 04:59:21 Carolin B02.09 03:59:42 Rascara 202.09 02:27:20 Burscheid Paffenlöh
02.09 04:59:20 Fl02.09 03:59:28 Amandus02.09 02:27:18 Hamm-Norddinker
02.09 04:59:00 Thaler, Sandra Isabell02.09 03:59:05 coeur de diamant02.09 02:26:17 Kurtscheid
02.09 04:58:53 mitter, nadine02.09 03:58:43 Nadir 9102.09 02:25:21 reitttunir
02.09 04:58:32 Kövi, Joy02.09 03:58:11 shirkahn h02.09 02:25:10 Rot am
02.09 04:58:15 wessling02.09 03:58:07 santordino02.09 02:24:51 Auetal- Rehren
02.09 04:58:12 Kretschmer, Lisa02.09 03:58:06 canina02.09 02:24:00 Springreiterwettbewerb in
02.09 04:58:06 Ashlynn REIFENRATH (USA)02.09 03:57:57 Larry Lemon02.09 02:22:12 heppen
02.09 04:57:56 Goclik, Sarah02.09 03:57:37 Its me02.09 02:21:47 kersebohm
02.09 04:57:50 Susan RICH (GBR)02.09 03:57:28 Comandante02.09 02:21:33 Isterberg
02.09 04:57:32 Siebel, Julia02.09 03:57:24 Queichtal02.09 02:21:06 Markee
02.09 04:57:09 Gerth ZIEGLER (ROU)02.09 03:56:46 Remington Steel 1902.09 02:15:12 wietmaschen
02.09 04:56:38 Ann-Kathrin DÖRING (GER)02.09 03:56:41 Cordabelle N02.09 02:15:02 Dossenheim
02.09 04:56:33 Lisa Brockmann02.09 03:56:06 nicole weinert02.09 02:14:58 BAD
02.09 04:56:23 dietmar schultz02.09 03:55:41 Curtis 602.09 02:14:45 Königsbach-Hegenach
02.09 04:55:47 Oelmann, Julia02.09 03:55:39 la una02.09 02:14:39 Reiturnier Bovenden
02.09 04:55:44 Gehmann, B02.09 03:55:30 woman in black02.09 02:13:53 Körlitz
02.09 04:55:29 Th02.09 03:55:26 Chap 5202.09 02:13:25 Reitturnier Westercelle
02.09 04:55:26 Safiyah, König02.09 03:55:19 Casanova 36102.09 02:12:06 Züttlingen
02.09 04:55:13 Reichardt, Kristin02.09 03:55:12 Sir Dance 202.09 02:11:49 elmshorn quadrille
02.09 04:55:05 Nonnenmann, Simone02.09 03:54:10 L awinja02.09 02:11:07 Isterberg dressurturnier
02.09 04:54:57 Hanna BERG (SWE)02.09 03:53:07 Le Cordial02.09 02:11:03 Djm München
02.09 04:54:45 Raimund, Mona02.09 03:52:16 Lorient 202.09 02:10:47 fohlenschau löbnitz
02.09 04:54:24 Miriam özmen02.09 03:51:26 Robin of Locksley02.09 02:10:27 Ovenstädt
02.09 04:54:11 Mana Khalid Ahmed bin02.09 03:51:09 Mambo 14702.09 02:10:20 Bormsdorf
02.09 04:54:09 Mansoor Ahmed Ali Al02.09 03:51:07 Cortino 2202.09 02:09:48 Welsleben
02.09 04:54:09 Khalid AHMED AL ROWIAIEI02.09 03:50:25 Relana T02.09 02:09:35 zachow
02.09 04:54:03 Menauer, Corinna02.09 03:50:15 Elaya02.09 02:08:48 pfalzmeisterschaften
02.09 04:53:59 Abdulla Hilal Mohammed AL02.09 03:50:13 Balou 38502.09 02:08:09 NIDDA -
02.09 04:53:29 rieffel,yamina02.09 03:50:05 Back02.09 02:07:49 wiesloch
02.09 04:53:22 aalbruck,02.09 03:49:41 Biry Ben Baran02.09 02:07:31 hamburg cup
02.09 04:53:02 Heinicke, Adrian Dominik02.09 03:49:31 Gold Boy02.09 02:07:18 georgsmarienh
02.09 04:52:49 Neubauer, Jrg02.09 03:49:28 calina4802.09 02:07:10 Dinklage
02.09 04:52:40 Gruchmann, Katja02.09 03:49:25 RoyalLady902.09 02:06:51 Starnberg-Wangen/Obb
02.09 04:52:39 Bernd Rösch02.09 03:49:20 partitur02.09 02:06:31 Reittunier Rastede
02.09 04:52:28 Seyring,02.09 03:49:10 Lauser 21802.09 02:06:29 Mertingen/Schw.
02.09 04:51:44 Suthau,Nele02.09 03:48:10 Lorina 8502.09 02:05:22 Lünen Brambauer
02.09 04:51:39 Denise Pollmeier02.09 03:47:58 Magic Merlin 1402.09 02:05:13 Schwandorf-Büchelkühn/Opf
02.09 04:51:18 Teeken, Mareike02.09 03:47:49 don vito 1002.09 02:04:53 Reitturnier Rehna
02.09 04:50:54 Elias, Sebastian02.09 03:47:41 Lacoste 8102.09 02:04:07 Assina 6
02.09 04:50:39 Döring, Ina-Maria02.09 03:45:38 Beckham 902.09 02:03:45 sprendlinger
02.09 04:50:16 Visser, Deike02.09 03:45:36 Salesman02.09 02:02:12 sir samba
02.09 04:50:09 Schmacks, Julia02.09 03:45:24 chellini02.09 02:02:03 frankreich
02.09 04:50:00 Gillmaier-Ritzinger, Monika02.09 03:44:48 jazzi02.09 02:01:46 Saarlouis
02.09 04:49:56 Dominique Wittchen02.09 03:44:35 Donja 17302.09 02:01:28 Hagen breckerfeld
02.09 04:49:27 gerold fahlbusch02.09 03:44:19 Gina Valentina02.09 02:01:23 alt m
02.09 04:49:24 schloh, katharina02.09 03:44:01 Shakespeare 7602.09 02:01:19 innastst
02.09 04:49:17 Breindl02.09 03:43:58 Betty Boo 402.09 02:01:18 Erlach
02.09 04:49:14 lippemeier, florian02.09 03:43:24 Weitsicht 202.09 02:01:17 Oberdielbach
02.09 04:48:54 Fehn, Merle02.09 03:42:09 Shahron02.09 02:01:17 trebel-liepe
02.09 04:48:33 Johanna WASMUTH (GER)02.09 03:41:59 Only you02.09 02:01:16 Euroclassics
02.09 04:48:20 Lehr, Alyscha Dana02.09 03:41:34 Glenna02.09 02:01:12 05.08.2012
02.09 04:48:12 Pastari, Adeline02.09 03:41:23 KN Ally02.09 02:01:07 elze
02.09 04:48:06 Karin Pithard-Wenzel02.09 03:40:45 CURASCAO02.09 02:01:06 Dahn
02.09 04:48:01 Burkhardt, Luisa02.09 03:40:42 Amazing Little Lena02.09 02:01:06 isendorf
02.09 04:47:31 Kotsch, Keana02.09 03:40:39 forrester junior02.09 02:01:03 Hagen-Driftsethe
02.09 04:47:31 Lesley Ann JONES (RSA)02.09 03:39:18 cascavella 302.09 02:01:01 reitanlage sellhorn
02.09 04:47:20 Rush, Jennifer02.09 03:38:22 Pazia02.09 02:00:59 Gravenbruch
02.09 04:47:18 Hassenj02.09 03:37:57 Holsteins Milano02.09 02:00:59 Goldika
02.09 04:47:14 Klieve,02.09 03:37:56 Escologne02.09 01:57:46 Ahrensbök
02.09 04:46:51 Kaptur, Martina02.09 03:37:45 Red Rubin 902.09 01:57:37 rc Straubing
02.09 04:46:41 Bischof,02.09 03:37:42 Bahrain 802.09 01:57:03 Rsv
02.09 04:46:35 schotte, ronja02.09 03:37:34 glorious02.09 01:55:43 Turnier Niederwerbig
02.09 04:45:54 Steffenhagen, Jennifer02.09 03:36:51 Bamby02.09 01:55:43 zierow
02.09 04:45:52 schenn christina02.09 03:36:49 El-Picar02.09 01:53:51 amann
02.09 04:45:45 Konstantin Kratzberg02.09 03:36:36 Quidam s Jumper02.09 01:53:49 Wellmitz
02.09 04:45:34 Wehlmann, Tina02.09 03:36:14 Emma D02.09 01:53:36 uedem-keppeln
02.09 04:45:30 Krüsmann, Celine02.09 03:36:12 Indigo 66 Old02.09 01:51:45 Berlin Olympiareiterstadion
02.09 04:45:24 stefanie scheffran02.09 03:36:09 Kaiser Odi02.09 01:51:20 kreismeisterschaft riesenbeck
02.09 04:45:08 Custodio Ortega, Gabriel02.09 03:36:07 kimba 2702.09 01:51:19 Eichsfeldmeisterschaft
02.09 04:44:48 Kersebohm, Henriette02.09 03:35:57 Concept 202.09 01:49:55 burgdorf 2013
02.09 04:44:39 kolbe,02.09 03:35:37 Forlan02.09 01:49:20 nico 447
02.09 04:44:27 Kloda Melina02.09 03:35:32 Don Divino 202.09 01:49:01 gestüt bonhomme
02.09 04:44:10 Berswordt-Wallrabe, Marzena von02.09 03:35:28 con dor02.09 01:47:33 berlin-tempelhof
02.09 04:44:05 Frank, Daniel02.09 03:35:23 Odin 28102.09 01:45:56 heideblütenturnier bispingen
02.09 04:44:05 Isensee, Victoria02.09 03:35:23 Enjoy P02.09 01:45:38 Reitturnier Osterbrock
02.09 04:44:03 Volber, Claudia02.09 03:34:29 pretty woman 19502.09 01:45:15 Meschede,
02.09 04:44:03 Bierbaum, D02.09 03:34:00 Waleska H02.09 01:43:47 damp dorotheental
02.09 04:43:50 Drobig, Ricarda02.09 03:33:56 Carimia H02.09 01:43:47 dierks
02.09 04:43:35 Fuhrmann, Quirien02.09 03:33:54 Fire Lady 2402.09 01:42:12 Untersöllbach
02.09 04:43:27 Gröpper, Claas02.09 03:33:54 Horse Gym s Fire02.09 01:41:22 fredenbeck
02.09 04:43:11 schramm,02.09 03:33:53 Fire Lady 2302.09 01:41:07 csi arenanova
02.09 04:43:11 guido flass02.09 03:33:53 Blue Fire Lady H.N.02.09 01:39:29 wahlstedt
02.09 04:43:06 barbara spie02.09 03:33:53 Fire Lady H.02.09 01:38:07 dom esc
02.09 04:42:58 Carvalho, Helder Filipe da02.09 03:33:53 Fire Lady H02.09 01:38:00 sonnwendderby burglengenfeld-dirnau
02.09 04:42:53 GABRIEL MARTIN ARMANDO (ARG)02.09 03:33:41 haitienne02.09 01:37:15 Reitertag schmogrow
02.09 04:42:26 Reckmeyer, Kai Felix02.09 03:33:31 Prusko02.09 01:37:13 RC Buchenhof
02.09 04:42:15 Waldhelm, Lisa02.09 03:33:03 Silencio02.09 01:36:25 Ronneburg
02.09 04:42:08 zur nedden02.09 03:32:29 Sandro Ass PJ02.09 01:35:58 Möhneburg-Scharfenberg
02.09 04:42:07 Hassan Abdulla Youssef AL02.09 03:32:07 schierensees micky blue eye02.09 01:35:18 fontainbleau
02.09 04:42:04 Romic, Michaela02.09 03:30:42 dragon 3702.09 01:35:08 heiligensee
02.09 04:41:47 Zimmermann, Anja02.09 03:30:07 Lacoste 8302.09 01:34:57 sulzfeld
02.09 04:41:32 Bernd rehfeld02.09 03:29:29 Charly Chap 202.09 01:33:20 wetserenger
02.09 04:41:25 Pfab, Nicole02.09 03:29:24 Lorelino02.09 01:33:15 pretzschendorf
02.09 04:41:24 Dittmann, Raili02.09 03:28:33 Obelix 14802.09 01:33:04 Wrexen